Location: Unspecified
(42.3650°N, 71.1030°W)
Time: 16:18:52
(UTC+00:00)

Tiros 1 - Pass Details

Date: 30 June 2024
Orbit: 624 x 656 km, 48.4° (Epoch: 13 July)

Event Time Altitude Azimuth Distance (km) Brightness Sun altitude
Rises 08:26:28 0° 290° (WNW) 2,913 10.2 -7.4°
Reaches altitude 10° 08:29:05 10° 277° (W) 2,007 9.3 -7.1°
Maximum altitude 08:32:50 25° 223° (SW) 1,276 8.1 -6.5°
Drops below altitude 10° 08:36:37 10° 168° (SSE) 2,014 9.4 -6.0°
Sets 08:39:16 0° 155° (SSE) 2,925 10.4 -5.6°
